This is the latest recevied weather packets stored in our database for station/object WX5II-11. If no packets are shown the sender has not sent any weather packets the latest 10 day(s).
| Time | Temp. | Humidity | Pressure | Rain* | Wind** | Luminosity | Snow |
|---|---|---|---|---|---|---|---|
| 1787841869 | 31.11° C | 64% | 1006.7 hPa | 0 mm | - | - | - |
| 1787840667 | 30.56° C | 66% | 1007.1 hPa | 0 mm | - | - | - |
| 1787840068 | 30° C | 68% | 1007.1 hPa | 0 mm | - | - | - |
| 1787837665 | 27.22° C | 77% | 1006.7 hPa | 0 mm | - | - | - |
| 1787837063 | 25.56° C | 80% | 1006.7 hPa | 0 mm | - | - | - |
| 1787835263 | 25° C | 80% | 1006.7 hPa | 0 mm | - | - | - |
| 1787834063 | 24.44° C | 80% | 1006.4 hPa | 0 mm | - | - | - |
| 1787831658 | 24.44° C | 80% | 1005.7 hPa | 0 mm | - | - | - |
| 1787830458 | 25° C | 80% | 1005.7 hPa | 0 mm | - | - | - |
| 1787829856 | 25° C | 80% | 1005.7 hPa | 0 mm | - | - | - |
| 1787827461 | 25° C | 78% | 1005.7 hPa | 0 mm | - | - | - |
| 1787824452 | 25.56° C | 78% | 1005.4 hPa | 0 mm | - | - | - |
| 1787823851 | 25.56° C | 78% | 1005.4 hPa | 0 mm | - | - | - |
| 1787823251 | 25.56° C | 78% | 1005.4 hPa | 0 mm | - | - | - |
| 1787819649 | 26.11° C | 76% | 1005.4 hPa | 0 mm | - | - | - |
| 1787817845 | 26.11° C | 76% | 1005.4 hPa | 0 mm | - | - | - |
| 1787811840 | 27.22° C | 73% | 1005.7 hPa | 0 mm | - | - | - |
| 1787808237 | 27.78° C | 69% | 1006 hPa | 0 mm | - | - | - |
| 1787803434 | 28.89° C | 62% | 1006 hPa | 0 mm | - | - | - |
| 1787800429 | 29.44° C | 58% | 1006 hPa | 0 mm | - | - | - |
| 1787799230 | 30° C | 56% | 1005.7 hPa | 0 mm | - | - | - |
| 1787798629 | 30.56° C | 56% | 1005.7 hPa | 0 mm | - | - | - |
| 1787761394 | 33.89° C | 53% | 1008.4 hPa | 0 mm | - | - | - |
| 1787760194 | 33.33° C | 57% | 1008.4 hPa | 0 mm | - | - | - |
| 1787758991 | 32.22° C | 59% | 1008.4 hPa | 0 mm | - | - | - |
* Rain latest hour (hover to see other rain measurements)
** Current wind speed in m/s (hover to see current wind gust speed)